Wind_Speed
17 18 18 18 19 18 17 15 14 13 13 13 12 12 11 10 9 9 10 10 10 9 9 9 10 10 9 7 5 3 3 4 4 4 4 4 3 2 1 1 1 1 2 2 3 3 3 4 4 4 4 4 4 4 4 4 3 3 2 2 1 1 0 1 1 1 1 0 0 1 1 1 1 1 1 1 1 2 3 3 4 4 4 5 5 5
16 17 17 17 17 17 16 14 13 12 11 11 11 11 10 9 9 9 9 9 9 8 7 8 9 9 9 8 5 4 5 5 5 5 5 4 3 1 1 1 1 2 3 3 4 4 5 5 5 5 5 5 5 5 5 5 5 5 4 4 4 3 3 2 2 1 2 2 2 2 2 2 2 2 2 1 2 2 3 3 3 4 4 5 5 6
17 18 18 18 17 17 15 13 12 12 11 10 10 10 9 9 9 9 9 9 9 8 8 8 8 8 8 8 7 6 6 6 6 5 4 3 2 1 0 1 2 2 3 4 5 5 6 6 6 6 6 6 5 5 5 6 6 6 6 6 6 5 5 5 4 4 4 4 3 3 3 3 3 3 2 2 2 3 3 3 3 4 4 5 5 6
19 20 21 20 18 16 15 13 12 12 11 10 9 9 9 9 9 9 9 9 9 9 9 9 9 9 9 9 8 7 6 6 6 5 4 3 2 1 0 1 2 3 4 5 6 6 6 6 6 6 6 6 6 5 5 6 6 6 7 7 7 7 7 7 6 6 6 5 5 5 5 5 4 4 3 3 3 3 3 3 4 4 5 5 6 6
18 19 20 20 18 16 15 13 12 11 10 9 9 9 10 10 10 10 10 10 10 10 10 10 10 10 10 10 9 8 6 6 6 5 4 3 2 1 1 2 3 4 5 5 6 6 6 6 6 6 6 5 5 5 5 6 6 7 7 7 7 7 7 7 7 7 6 6 6 6 5 5 5 5 5 4 4 4 4 4 4 4 5 5 6 6
17 18 19 18 17 16 15 13 12 11 10 10 10 10 11 11 11 11 11 11 11 11 11 11 11 11 11 11 10 9 6 6 6 6 5 4 3 2 2 3 4 4 5 5 5 5 5 5 5 5 5 4 4 4 5 6 6 7 7 7 7 7 6 6 6 6 6 6 6 5 5 5 5 5 4 4 4 4 4 4 4 5 5 5 5 6
16 18 18 18 17 16 16 14 12 11 11 11 12 12 13 12 12 11 11 11 11 11 11 11 11 11 11 10 10 9 7 7 7 7 7 5 4 4 4 4 5 5 5 5 4 4 4 4 4 4 4 4 4 4 5 6 7 7 7 6 6 6 5 5 4 4 5 5 5 4 4 4 4 4 4 4 4 4 4 4 4 4 5 5 5 6
17 18 19 18 18 17 17 15 14 12 12 12 13 14 14 14 13 12 12 11 11 11 10 10 10 10 10 10 10 9 8 8 8 8 7 7 6 6 6 6 6 6 5 4 4 3 4 4 4 3 3 3 4 5 5 6 6 6 5 4 4 3 3 3 3 3 3 4 4 4 4 4 3 3 3 3 3 4 4 4 4 4 4 5 5 5
20 20 20 19 18 18 17 16 15 13 12 12 14 15 15 15 14 14 13 12 12 11 10 10 9 9 9 9 10 10 9 8 8 8 8 7 7 7 7 7 7 7 5 4 3 4 4 4 3 3 3 3 4 5 6 6 6 4 3 2 1 1 1 1 1 2 3 3 3 4 4 4 4 3 3 3 3 4 4 4 4 4 4 4 4 4
21 21 20 19 19 18 16 15 15 15 13 13 14 15 15 16 16 16 16 15 14 12 11 10 10 9 9 9 9 10 9 9 9 8 8 8 8 8 8 8 8 7 6 5 5 5 5 5 4 3 3 3 4 5 6 6 4 2 1 1 1 1 1 1 1 1 1 2 2 3 3 3 3 4 3 3 3 4 4 4 4 3 4 4 4 3
19 20 19 18 19 18 16 16 16 16 15 14 15 15 16 16 16 17 17 17 16 14 13 12 11 10 10 10 10 9 9 9 9 8 8 8 8 9 9 9 9 8 8 7 8 8 7 7 6 5 4 4 4 5 5 5 3 1 0 0 1 1 1 1 1 1 1 1 1 2 2 2 3 3 3 3 3 3 3 3 3 3 3 3 3 2
17 18 17 17 18 18 16 16 17 17 17 16 14 14 14 16 16 16 17 18 17 16 15 13 12 11 11 10 10 10 9 9 9 9 8 9 9 9 10 9 9 9 9 9 9 9 8 8 7 7 6 5 5 5 5 4 2 1 1 2 2 2 2 2 1 1 1 1 1 1 1 1 1 2 2 2 2 2 2 2 2 2 3 2 2 2
18 18 17 16 17 17 16 17 18 19 19 18 16 14 15 16 16 16 15 17 17 16 15 14 13 12 11 11 10 10 10 10 10 9 9 10 10 10 10 10 9 9 9 8 8 8 8 7 7 6 6 5 5 5 5 3 1 1 2 3 3 3 3 3 2 2 2 2 1 1 1 1 1 1 1 2 2 2 2 2 2 2 2 2 2 1
17 17 16 15 16 16 17 18 19 19 18 18 17 17 18 18 18 16 15 16 16 16 15 14 13 13 12 11 10 10 10 10 10 10 10 11 11 10 10 9 9 8 8 7 7 7 6 5 5 4 4 4 4 4 3 2 1 2 3 3 4 4 4 4 3 3 2 2 2 2 1 1 1 1 1 2 2 2 2 2 2 2 2 2 2 2
17 17 15 14 15 16 17 19 20 20 19 19 18 19 18 19 18 17 15 15 16 15 14 13 13 12 12 11 11 11 11 11 10 10 10 10 11 10 9 8 7 7 6 5 5 5 5 4 4 3 3 3 3 3 2 2 2 2 3 3 3 4 4 5 4 3 3 3 2 2 2 2 2 1 1 2 2 2 2 2 2 2 2 2 2 2
19 17 15 15 16 17 18 19 20 19 20 19 19 18 17 18 18 17 15 15 16 16 14 13 11 10 10 11 12 12 11 11 11 11 10 9 9 9 8 6 5 5 4 4 4 4 4 4 4 3 3 3 3 2 2 2 3 3 3 3 3 4 5 5 4 3 3 3 3 3 3 3 3 2 2 2 2 2 2 2 2 2 2 2 3 3
19 18 16 16 17 18 19 20 20 19 20 20 19 18 17 17 18 17 16 16 16 16 14 12 8 5 5 8 11 13 12 11 11 11 9 8 8 8 6 5 3 3 3 3 4 4 4 4 4 4 4 3 3 2 1 2 2 2 3 3 3 4 5 4 3 2 1 1 1 2 3 3 3 3 3 3 3 3 3 3 3 3 3 3 3 3
18 18 17 17 17 18 20 20 20 20 20 20 19 18 17 17 18 17 17 16 17 16 15 13 9 5 3 3 6 10 11 10 10 10 8 7 7 6 5 3 2 2 3 3 4 4 4 4 4 4 4 4 3 2 1 2 2 2 2 3 4 5 5 3 2 1 1 1 1 1 2 2 3 3 3 3 3 3 3 3 4 3 4 3 3 3
19 19 18 18 18 19 21 21 21 21 21 20 19 18 17 17 17 17 17 17 16 15 14 13 11 7 5 3 5 7 8 7 8 8 7 6 6 5 3 2 2 2 2 3 3 3 4 4 5 5 4 4 3 1 1 1 1 2 3 4 5 5 4 2 0 1 1 1 1 1 1 2 2 3 3 3 3 3 3 4 4 4 4 4 4 4
18 19 19 18 19 20 21 22 22 22 21 20 19 18 17 17 17 17 16 16 16 15 14 13 12 10 8 6 6 7 7 6 7 7 6 5 5 5 3 2 2 1 1 2 2 3 4 5 5 5 4 3 2 1 1 1 2 3 4 4 4 4 3 1 1 1 1 1 1 1 1 1 1 1 2 2 3 3 3 3 3 4 4 4 4 5
15 16 16 16 16 18 19 20 20 20 19 18 18 17 17 17 17 17 17 17 16 16 15 13 11 10 8 8 7 7 7 6 6 6 6 5 5 5 4 3 2 1 1 1 2 3 4 5 5 4 3 2 2 2 0 1 2 2 3 3 3 3 2 1 1 1 0 1 1 1 1 1 1 1 1 2 2 2 2 3 3 4 4 4 4 4
10 12 12 12 13 13 14 15 16 17 16 16 16 16 16 17 17 17 17 16 16 15 14 12 10 8 8 8 8 7 7 6 6 6 5 4 5 6 5 4 3 1 0 1 3 4 5 5 4 3 2 3 3 2 1 0 1 2 3 3 3 3 3 2 2 1 1 1 2 2 2 2 2 2 2 2 2 2 2 3 3 4 4 4 4 4
6 7 9 10 10 9 9 11 13 14 14 14 14 14 14 14 14 15 14 14 13 13 12 11 10 9 9 8 8 8 7 7 7 6 5 4 5 6 6 5 3 2 1 2 3 4 5 4 3 1 3 4 4 3 1 1 1 2 2 2 2 2 2 2 2 2 2 2 2 2 3 3 3 3 3 3 3 3 3 3 3 4 4 4 5 5
4 6 8 8 8 8 8 10 11 12 13 12 11 11 10 10 9 9 9 9 10 10 10 9 9 9 8 8 8 8 8 7 7 7 6 5 5 6 6 5 4 2 2 3 4 5 4 3 2 3 5 7 5 3 2 2 1 1 0 1 1 1 2 2 2 2 2 2 2 2 2 2 3 3 3 4 4 4 4 4 4 4 4 5 5 5
5 6 7 8 8 8 8 9 10 11 12 12 11 11 10 9 9 8 9 9 9 9 9 9 8 8 8 8 8 8 8 8 7 7 7 5 5 5 6 5 4 2 2 3 4 5 4 2 3 5 7 8 7 6 4 3 3 2 1 1 1 1 1 1 1 1 1 1 1 2 2 2 2 2 2 3 3 4 4 4 5 5 5 5 5 6
6 7 8 8 8 8 8 9 10 11 12 12 12 12 11 10 10 9 9 9 9 9 9 8 8 8 8 8 8 8 8 8 8 8 8 6 5 5 6 5 4 3 2 3 4 4 3 2 4 7 8 9 8 7 5 3 3 2 2 2 2 1 1 1 1 1 1 1 1 1 1 2 2 2 2 2 3 3 4 4 4 5 5 5 6 6
7 7 8 8 8 8 9 9 11 12 12 12 12 11 11 10 10 9 10 10 10 9 9 8 7 8 8 8 7 8 8 8 8 8 8 7 5 5 6 6 4 3 2 3 3 3 3 3 5 7 9 9 9 7 6 4 4 4 4 4 3 2 1 1 1 1 1 1 1 1 1 1 2 2 2 2 3 3 3 3 4 4 4 5 6 8
6 6 7 7 8 8 9 10 11 11 11 11 11 10 10 9 9 9 10 10 9 9 10 9 7 6 7 7 7 8 8 8 8 8 8 7 5 5 6 5 4 3 2 2 3 3 3 4 6 7 9 9 9 8 7 6 6 7 7 6 4 3 3 3 3 3 3 2 2 2 2 2 2 2 2 3 3 3 3 3 3 4 5 6 8 9
8 8 8 8 9 9 9 9 9 9 9 9 9 9 9 8 8 8 8 9 9 9 10 10 8 6 5 6 7 8 9 9 9 9 8 7 6 5 6 5 4 3 2 2 2 3 4 5 6 8 9 9 9 9 8 7 8 9 10 9 7 6 5 5 5 5 5 4 4 4 4 3 3 3 3 3 3 3 4 4 4 5 6 7 8 8
11 11 11 11 11 11 11 10 9 8 7 7 7 8 8 8 7 6 7 7 8 8 9 9 9 7 6 5 5 6 8 10 10 10 9 8 6 6 6 5 4 3 2 1 2 3 4 5 7 8 9 9 9 9 9 9 9 11 11 10 9 8 8 8 8 7 7 6 6 6 5 5 5 5 4 4 4 3 4 3 4 5 6 7 7 8
12 12 12 12 11 11 11 11 10 10 9 8 7 7 7 6 6 6 6 6 7 7 7 7 8 8 8 4 2 2 5 8 10 11 10 9 7 6 6 5 4 3 2 1 1 2 2 4 6 8 8 9 10 10 10 10 11 12 12 11 10 9 10 10 10 10 9 9 8 8 8 7 7 6 6 5 4 4 3 3 3 4 6 6 7 7
11 11 11 11 11 11 11 10 10 10 10 9 8 7 6 6 6 6 6 6 6 6 6 7 7 8 9 7 5 3 2 5 8 10 10 8 7 6 6 5 4 4 3 2 1 1 2 2 4 6 8 9 10 10 11 12 13 13 12 11 10 10 10 10 11 11 11 10 10 10 10 9 8 7 7 6 5 4 3 2 2 4 5 6 6 7
9 10 10 10 11 11 11 10 10 10 10 9 8 7 6 6 6 6 6 6 6 6 6 6 7 8 9 10 9 6 3 4 6 9 9 8 7 6 7 6 5 4 3 3 3 2 3 2 2 4 6 8 9 10 11 13 13 12 11 10 10 10 10 10 11 11 11 10 10 10 10 9 8 8 7 6 5 4 3 3 2 3 4 5 6 6
9 9 10 10 10 10 10 10 10 10 10 9 8 7 6 6 6 6 5 5 5 5 6 6 7 8 9 10 11 9 6 5 6 8 8 8 7 6 7 6 6 5 4 4 3 3 3 4 4 4 5 7 8 8 9 10 10 9 8 8 9 9 10 10 10 10 10 9 9 8 8 8 8 7 7 7 6 6 5 4 3 3 4 5 5 6
9 9 9 9 10 10 10 10 10 9 9 8 7 6 6 6 5 5 5 4 4 4 5 5 6 7 8 9 10 10 7 6 7 8 8 8 8 7 7 7 6 6 5 5 4 3 3 4 5 5 5 6 7 7 6 6 6 6 6 7 8 9 9 9 9 8 8 7 7 7 7 7 7 7 7 7 7 7 7 6 5 5 5 5 5 6
8 9 9 9 9 9 9 9 8 8 7 6 6 6 5 6 6 6 5 5 4 4 4 4 5 6 6 7 7 7 6 6 7 8 8 8 8 8 7 6 6 6 5 5 5 4 4 4 6 7 7 7 6 5 3 3 3 4 5 7 8 8 8 8 8 7 7 6 6 6 6 6 6 6 7 7 7 8 8 8 8 8 7 7 6 7
8 9 9 9 9 9 9 8 8 7 6 6 6 6 6 6 6 6 6 5 5 4 4 4 4 5 5 6 6 6 5 6 7 7 8 8 8 8 8 7 6 6 6 5 5 5 5 5 6 7 8 7 5 3 3 4 5 6 6 7 7 8 8 8 7 7 6 6 6 6 6 6 6 6 6 7 7 8 8 8 9 9 9 9 9 9
9 9 9 9 10 10 9 9 8 7 6 6 6 7 7 7 7 7 6 6 5 5 4 4 4 4 5 5 6 6 6 7 7 7 7 8 8 8 8 8 8 8 8 7 7 7 7 5 5 5 4 5 6 6 6 8 9 9 7 6 7 8 7 7 7 6 6 6 6 6 6 6 6 6 6 7 7 7 7 7 8 8 9 10 10 10
9 9 9 9 9 9 9 9 8 7 7 7 7 7 7 7 7 7 7 6 6 5 5 4 4 4 4 4 5 6 6 7 7 7 7 8 8 9 9 9 9 10 10 9 9 9 9 8 6 4 3 4 5 7 10 11 12 11 9 5 6 7 7 7 7 6 6 6 6 6 5 5 6 6 6 6 6 6 5 5 6 6 7 8 8 9
9 8 8 8 8 8 8 8 8 7 7 7 8 8 8 7 7 7 7 6 6 5 5 5 5 5 5 5 5 5 5 6 7 7 8 8 9 10 10 11 11 11 11 11 11 11 11 11 11 11 9 7 7 9 11 13 14 14 11 6 4 6 6 7 7 6 6 6 5 5 5 5 5 5 5 5 5 4 4 4 4 4 5 6 6 7
8 8 7 7 7 7 8 8 8 8 8 8 7 7 7 7 7 7 7 6 6 6 5 5 5 5 5 5 5 5 5 6 6 7 8 9 10 10 11 11 12 12 12 12 12 12 12 13 13 14 14 14 14 15 16 16 16 14 11 8 6 6 6 7 7 7 6 5 5 5 5 5 5 5 5 5 4 3 3 3 3 4 5 6 6 7
8 7 6 6 6 7 8 8 8 8 8 8 7 7 7 7 7 7 6 6 6 6 6 6 6 6 6 6 6 6 6 7 7 8 8 9 10 11 11 12 12 12 12 12 13 13 13 13 13 13 13 13 14 15 16 17 16 13 11 10 9 8 6 6 7 7 6 5 4 5 5 5 6 6 6 5 4 4 4 4 4 5 5 6 7 7
7 6 5 6 6 7 8 8 8 8 8 8 7 7 7 7 7 6 6 6 6 6 6 5 6 6 7 7 8 8 8 8 8 9 9 10 11 11 11 12 12 12 12 13 13 13 13 13 13 13 13 13 13 13 15 17 16 14 12 11 9 8 5 4 5 6 6 5 5 5 5 6 6 7 7 6 5 5 4 5 5 5 6 6 7 7
6 6 6 6 7 8 9 9 9 9 8 8 7 7 7 7 7 7 6 6 6 6 6 6 6 7 8 9 9 9 9 9 9 10 10 10 10 11 11 11 11 12 12 13 13 13 13 13 13 13 13 13 13 13 15 16 17 15 13 10 9 9 8 6 6 6 6 6 5 5 5 6 7 8 8 8 7 6 6 6 6 6 6 7 7 8
6 6 6 7 8 8 9 9 9 9 9 8 8 7 7 7 7 7 7 7 7 6 6 6 7 7 8 10 10 10 10 10 9 9 9 9 9 9 9 10 10 11 12 13 13 13 13 13 13 13 12 12 13 13 15 16 16 16 13 10 9 10 11 11 10 8 8 7 6 5 5 7 8 9 9 9 9 8 8 7 7 7 7 7 8 8
5 5 6 6 7 8 8 8 9 9 9 9 8 8 8 8 8 8 8 8 8 8 8 8 8 9 9 9 9 9 9 9 8 7 6 6 6 7 8 9 10 11 12 12 13 13 13 13 12 11 11 11 12 14 15 15 15 15 14 11 10 11 12 11 10 10 9 8 7 6 6 7 9 10 10 11 10 10 9 9 9 9 9 9 9 9
5 5 5 5 6 6 7 7 8 8 9 9 9 9 9 9 9 9 9 9 9 9 9 10 10 11 12 11 10 9 9 9 8 7 6 5 5 6 7 8 9 10 10 11 11 11 11 11 11 11 11 11 12 14 15 15 15 15 14 13 12 13 13 13 11 10 9 8 8 7 7 8 9 10 11 11 12 12 11 10 10 10 10 10 10 9
5 5 5 5 5 5 6 6 7 7 8 8 9 9 9 10 10 10 10 10 10 10 11 11 12 13 14 14 14 13 12 12 11 10 8 7 6 6 6 7 8 9 9 10 10 10 10 10 11 12 13 13 13 14 15 16 16 16 15 14 14 14 15 14 12 10 8 8 7 7 7 8 9 10 11 12 13 14 13 13 12 12 11 11 10 10
7 7 6 6 6 5 5 6 6 6 7 7 8 8 9 9 10 10 10 10 11 11 11 12 12 13 14 15 15 15 14 14 13 12 10 8 7 6 6 6 7 8 8 9 10 10 11 12 13 14 15 16 16 17 17 17 17 17 16 15 15 15 16 14 11 8 7 6 6 6 7 8 9 10 11 13 15 16 16 15 15 14 12 11 10 10
9 8 8 7 7 7 6 6 6 6 6 6 6 7 8 8 9 10 10 10 11 11 11 12 12 13 13 14 14 14 14 13 13 12 10 8 7 6 5 5 6 7 8 9 9 10 11 12 15 17 18 18 18 18 18 18 18 17 16 16 16 15 15 14 10 7 6 6 6 6 7 8 8 9 11 12 14 16 17 17 16 15 13 11 10 10
10 10 10 9 9 8 8 7 7 7 6 6 6 7 7 8 9 9 10 10 11 11 11 12 12 12 13 14 14 14 13 13 12 12 10 8 7 6 6 5 6 6 7 8 8 8 8 9 11 14 17 18 18 18 18 18 17 16 15 16 15 14 14 13 10 7 5 6 6 7 8 8 9 9 10 11 13 15 16 16 16 14 13 12 11 12
Wind_Direction
203 204 204 204 202 200 201 206 209 211 214 214 213 214 217 223 226 225 222 221 222 224 222 208 200 201 207 205 198 188 180 164 147 135 127 126 128 129 116 88 23 351 333 326 320 316 314 313 312 309 306 301 296 292 288 281 271 257 240 224 210 189 103 69 53 36 37 29 245 230 223 234 266 286 277 280 298 324 338 342 340 339 341 343 345 346
196 197 197 198 198 196 196 199 201 202 207 209 210 212 216 217 216 213 210 209 210 209 205 199 197 201 205 198 181 161 162 154 146 139 134 136 140 136 104 39 5 352 342 334 326 321 316 314 312 308 305 301 298 294 289 284 277 268 256 245 236 229 226 222 225 233 230 240 248 241 231 238 254 268 273 283 306 323 329 331 334 334 336 337 340 340
182 184 187 190 192 193 192 191 192 196 201 207 212 213 212 205 202 199 197 197 196 192 187 185 186 189 189 181 166 152 152 148 146 145 147 149 151 144 78 8 355 347 342 332 327 325 322 320 318 314 311 307 303 298 292 286 280 273 265 256 247 240 236 232 232 232 233 237 241 241 237 243 251 256 271 284 300 313 318 321 325 329 330 333 335 335
175 175 180 184 189 191 191 187 187 192 199 206 212 211 202 193 189 189 187 185 182 178 174 173 173 172 169 163 155 148 148 149 151 154 160 160 160 156 328 332 329 328 328 326 325 325 325 325 323 321 318 315 311 306 299 290 282 276 269 263 256 250 245 240 238 237 237 240 244 246 246 249 253 259 269 278 287 296 305 309 316 321 326 328 330 331
175 176 179 182 184 187 189 188 188 192 200 205 205 199 190 185 183 182 180 176 172 168 165 165 165 164 161 157 151 146 147 157 165 168 172 177 187 208 275 306 312 315 319 322 324 327 327 326 324 323 323 320 317 310 302 291 284 279 274 269 264 258 253 248 245 244 245 247 251 255 257 258 260 264 267 270 275 280 287 295 303 310 315 318 322 324
175 178 180 180 180 183 186 187 189 194 198 199 196 189 183 181 180 179 177 172 167 164 162 162 163 164 163 160 154 148 145 164 176 182 189 197 209 231 266 294 305 313 319 323 327 328 326 325 323 324 324 322 317 307 297 290 287 286 284 279 272 266 260 254 249 247 247 249 252 255 259 261 263 265 268 270 272 275 280 288 296 303 309 313 316 319
173 177 179 179 180 182 183 184 190 196 196 193 188 183 179 179 180 180 179 175 170 165 164 165 167 168 169 168 165 161 160 177 192 201 208 217 231 252 272 290 302 311 319 324 327 324 320 318 319 323 325 320 310 299 293 291 294 296 296 291 283 273 264 256 249 244 243 245 247 250 253 256 260 264 267 271 275 278 283 288 294 302 309 314 317 318
170 175 178 179 180 181 181 183 190 198 202 193 184 180 178 179 180 181 182 180 177 173 171 172 173 175 178 180 182 184 189 200 210 220 228 238 252 268 281 293 302 309 316 320 318 309 304 307 312 318 321 312 299 292 291 295 300 305 308 307 301 287 271 259 249 241 239 238 240 242 244 247 251 256 263 270 276 282 286 289 295 305 312 318 321 323
169 172 177 180 179 178 179 183 189 196 200 193 184 180 180 180 180 181 183 184 184 182 181 182 183 185 188 192 197 203 209 217 224 232 241 252 264 276 287 297 304 309 310 308 296 288 289 295 304 311 313 303 293 291 293 299 305 312 324 345 355 343 319 289 262 246 240 239 239 240 241 243 246 250 257 265 274 281 286 291 299 309 316 321 323 324
172 172 175 179 181 180 177 180 186 192 193 189 185 182 181 181 180 180 182 185 186 186 188 190 192 194 197 201 206 212 219 226 233 241 251 263 274 284 294 300 304 305 301 291 281 279 281 286 293 296 291 285 286 291 294 301 305 309 336 53 57 45 32 10 322 278 259 253 253 252 252 252 252 254 259 267 278 287 294 299 304 313 320 323 324 326
171 173 173 176 181 183 182 182 183 185 184 184 185 185 184 183 182 181 182 183 185 187 189 193 196 199 202 206 210 216 223 231 240 250 260 271 282 290 296 300 302 301 296 289 284 282 282 283 284 281 274 267 272 283 291 298 298 293 314 40 18 357 353 341 315 291 283 279 273 273 271 271 269 270 273 279 289 297 302 307 311 317 321 321 324 326
169 172 173 175 179 182 183 184 183 181 179 180 182 184 186 186 186 185 184 183 184 187 190 193 198 202 205 208 212 218 225 232 242 252 263 272 280 287 293 296 298 297 294 289 286 285 284 284 283 280 275 269 268 274 284 289 290 307 7 359 342 324 313 303 288 279 282 284 289 289 287 294 301 301 298 295 297 303 306 311 317 321 322 322 319 318
170 172 174 176 178 180 182 181 180 179 179 181 182 182 183 186 188 188 187 187 187 188 192 195 198 203 208 211 215 219 226 233 242 251 260 267 275 282 287 291 293 293 291 286 283 282 282 283 282 281 277 272 270 273 278 279 285 355 4 347 334 321 307 295 284 275 274 281 285 293 301 322 336 327 312 304 302 303 306 314 319 323 325 324 313 298
168 170 172 174 178 181 182 181 178 177 181 184 186 186 185 186 188 188 187 188 189 191 194 196 198 202 207 212 216 221 227 234 243 251 259 266 273 280 284 288 290 289 286 281 277 276 279 279 278 277 274 270 268 270 274 279 315 354 341 328 321 313 301 293 283 273 267 265 268 271 269 275 297 313 305 302 302 304 307 311 315 316 320 316 301 280
168 168 168 173 178 181 184 183 181 181 183 186 189 189 188 187 187 188 187 186 188 191 194 196 200 205 210 214 219 224 230 237 245 252 259 268 275 280 284 287 287 284 278 270 266 268 273 272 271 270 269 263 259 260 275 312 339 337 320 314 312 307 299 294 286 276 263 253 249 247 246 249 260 276 283 289 292 293 298 301 300 302 306 305 300 294
173 172 172 176 180 183 185 185 184 184 185 186 189 190 190 188 189 190 189 187 187 189 189 190 195 206 217 223 226 229 234 241 248 252 255 264 274 280 283 285 283 275 265 254 253 259 267 269 268 267 265 258 250 252 288 328 331 321 307 306 303 299 297 296 292 285 272 256 244 240 243 246 251 256 259 265 274 281 285 288 290 291 295 297 295 293
177 177 178 179 181 184 186 187 186 185 186 187 189 191 192 192 192 192 192 190 189 188 187 189 191 200 218 228 232 235 236 240 246 250 249 253 265 275 281 280 273 260 250 243 246 253 262 266 269 270 267 258 247 247 298 325 319 306 298 293 290 289 290 292 294 297 303 290 267 251 243 242 245 249 253 251 259 271 276 279 282 284 287 290 289 288
180 182 183 182 183 184 185 185 186 187 188 188 189 192 194 195 195 194 194 194 192 189 190 193 196 198 199 199 224 234 236 234 237 242 243 245 255 266 273 267 253 242 240 241 246 252 259 265 269 273 273 263 248 241 311 326 315 298 288 281 281 284 285 286 289 357 37 17 344 307 274 256 248 247 249 250 254 260 269 275 279 280 282 286 287 287
186 188 188 187 187 187 186 186 187 189 190 190 191 192 193 195 196 196 196 197 196 195 196 199 203 210 217 210 221 229 233 226 228 233 236 242 248 253 256 240 224 229 237 241 246 254 261 266 272 277 279 264 241 217 357 331 303 280 274 277 280 281 280 271 245 75 50 8 344 332 313 294 274 261 255 253 251 254 262 270 276 278 280 282 284 285
192 196 197 196 193 190 189 191 193 194 194 195 195 194 193 194 195 195 196 198 200 201 204 205 210 219 228 228 228 229 228 222 223 229 237 240 240 238 227 202 192 209 231 238 248 260 265 270 276 282 281 252 206 154 53 309 273 271 279 285 287 285 277 242 150 97 42 346 325 327 330 315 297 285 275 265 262 265 271 271 275 278 279 278 279 280
202 203 207 207 202 196 194 196 198 199 200 200 199 197 195 195 195 196 199 202 204 206 209 211 215 221 227 225 223 223 227 222 225 235 244 240 231 223 211 194 181 177 192 245 265 270 271 275 282 284 271 211 163 131 93 266 276 297 316 330 341 349 359 42 89 94 22 287 283 288 298 294 285 276 271 267 271 274 277 275 274 274 273 271 271 272
214 211 210 210 210 208 206 203 201 201 204 205 204 201 199 198 198 199 204 207 209 211 213 215 216 218 221 221 221 225 233 230 232 240 247 234 219 212 206 196 187 181 170 287 282 278 277 281 286 280 224 171 147 128 138 242 353 14 12 8 10 15 15 18 24 16 323 294 279 271 271 272 271 266 256 256 260 263 265 265 265 264 264 264 265 264
226 220 212 209 210 213 214 208 204 203 204 208 209 209 209 208 208 210 212 213 214 214 215 216 217 220 224 226 228 232 236 237 238 239 238 225 211 207 204 201 201 213 294 302 288 282 282 285 280 218 163 143 122 104 117 116 77 52 29 16 4 354 348 343 339 332 324 312 300 290 282 277 276 275 273 272 270 265 261 261 264 266 264 264 264 263
212 215 211 206 203 204 207 208 205 202 201 203 205 208 210 212 214 216 216 214 212 212 213 216 219 221 224 227 229 231 234 235 234 231 226 217 207 203 203 205 212 232 290 295 290 287 287 282 232 173 159 147 130 111 128 144 148 142 94 12 350 336 328 325 322 324 325 321 317 312 305 297 292 288 283 279 276 274 271 269 268 268 266 264 263 264
191 196 197 195 193 193 197 201 201 199 195 194 194 195 197 198 198 197 196 200 203 208 211 214 215 218 224 226 227 227 228 227 226 222 218 210 202 201 205 211 219 238 283 292 289 287 286 255 193 177 172 166 159 153 157 173 189 201 210 223 257 299 311 313 315 319 325 327 327 327 321 316 310 303 294 289 283 279 276 273 271 269 264 264 262 261
180 181 182 182 182 182 185 189 192 191 190 190 191 193 195 196 196 196 199 201 204 207 210 210 213 219 226 225 225 224 221 218 218 217 213 206 200 205 213 217 225 242 283 292 289 286 277 223 192 185 185 186 186 185 187 199 222 247 264 265 260 248 244 259 286 304 315 317 323 327 324 324 319 314 306 299 292 286 282 278 276 273 270 269 265 260
171 171 171 172 172 173 175 180 183 185 187 189 193 196 200 202 202 201 201 205 209 211 211 207 211 219 221 219 218 217 213 211 210 211 210 206 204 207 215 221 227 245 283 291 287 281 266 218 200 195 195 199 204 210 218 237 266 288 297 294 281 251 219 213 217 229 243 249 260 278 297 312 316 314 308 304 298 292 288 284 281 279 275 267 259 253
155 153 153 152 155 161 169 175 179 183 186 189 194 199 205 209 210 208 210 214 217 217 216 211 211 213 210 207 209 209 206 205 204 205 207 204 203 205 211 219 227 245 282 290 282 271 249 220 208 204 205 209 214 222 235 255 280 297 305 303 288 253 220 211 213 216 223 231 237 245 254 268 285 295 298 298 295 291 288 285 281 273 263 257 253 252
126 122 126 134 143 153 161 167 172 179 186 192 196 201 208 215 218 219 220 222 221 218 217 216 214 211 204 203 205 207 207 207 205 204 206 204 203 207 212 218 227 245 278 285 269 246 227 218 213 211 212 216 222 230 243 263 284 298 304 302 290 266 239 229 225 225 227 232 238 244 251 257 262 267 272 276 282 285 281 283 280 272 263 261 262 264
133 134 140 147 153 157 160 159 160 164 172 183 197 206 213 219 222 222 223 225 223 220 220 220 218 212 205 201 207 218 222 215 210 208 208 206 202 205 214 218 226 240 264 271 233 210 210 216 217 217 219 223 228 236 250 269 285 295 298 296 287 271 255 247 244 242 242 244 247 252 256 260 261 261 259 257 262 270 273 281 285 282 279 276 276 277
150 154 157 160 162 165 166 164 162 161 165 174 192 211 221 225 227 227 228 230 230 228 227 225 221 215 209 198 189 223 231 215 209 208 209 206 204 207 213 214 222 234 246 248 204 183 204 209 216 221 225 229 233 241 255 271 283 290 291 286 276 265 259 257 257 257 258 259 261 264 266 267 266 264 260 256 254 257 266 277 285 287 287 288 287 288
162 164 165 167 169 172 173 174 174 175 178 186 200 215 227 234 236 238 239 240 239 237 234 230 226 221 217 212 208 208 215 204 203 204 204 200 200 207 215 216 221 231 240 241 245 234 210 206 216 224 230 234 239 246 259 271 280 284 284 276 264 257 258 260 262 264 266 268 270 271 272 272 271 268 264 259 254 251 255 264 277 284 288 290 292 294
177 178 179 180 182 184 186 188 190 193 196 201 209 218 228 234 239 242 243 244 244 242 238 233 229 226 224 223 223 223 221 200 195 196 199 197 198 205 216 220 224 230 239 245 254 256 245 257 248 239 240 242 246 253 263 270 275 277 276 267 258 254 258 261 264 266 269 270 272 273 274 274 273 271 267 262 255 250 250 251 263 277 282 286 290 293
193 194 196 197 197 199 201 204 205 207 208 212 217 223 229 234 236 236 237 240 244 246 244 240 234 230 228 227 227 228 228 216 200 196 200 202 204 211 219 223 227 232 238 246 257 266 268 267 270 270 267 265 264 264 267 268 269 270 268 262 258 256 258 261 264 265 267 269 270 270 271 271 271 269 267 262 256 251 248 246 247 255 264 277 286 290
204 206 208 209 210 211 211 212 212 211 212 216 222 229 236 238 235 230 227 232 241 249 252 248 242 237 233 230 229 230 231 226 215 209 211 212 216 223 229 231 233 236 237 244 254 264 270 272 277 284 288 292 293 288 273 263 259 262 267 267 264 261 260 260 260 261 262 262 261 260 261 262 263 263 263 261 257 254 251 249 247 245 248 257 270 281
210 212 214 215 216 216 215 214 213 213 216 222 230 238 244 244 238 231 226 229 238 249 256 254 247 241 235 232 229 227 229 229 225 221 220 222 226 230 233 235 238 240 239 242 249 258 267 275 282 286 288 291 294 291 271 262 265 272 277 275 271 265 261 259 256 254 252 250 248 247 250 253 255 257 259 260 260 260 259 258 257 256 254 252 255 263
216 217 218 219 219 219 219 219 219 222 227 235 242 246 248 245 239 232 227 229 234 243 251 251 248 241 234 229 221 216 214 219 222 223 223 226 229 231 232 236 242 246 246 246 250 258 267 275 283 285 283 277 272 260 245 269 280 284 284 274 263 256 253 255 254 249 243 239 238 239 243 247 250 253 257 260 263 265 267 268 268 268 267 265 263 262
223 223 223 223 222 222 223 226 229 233 239 244 247 247 246 242 236 230 227 227 232 238 242 243 241 237 231 225 219 214 213 217 220 223 224 228 231 234 235 239 246 252 256 257 259 262 264 268 277 281 277 268 265 265 270 282 291 295 293 266 246 238 239 245 249 246 238 234 234 237 243 247 251 255 258 262 266 268 270 272 273 274 274 273 272 271
229 229 228 227 227 227 229 232 235 241 245 248 247 245 242 237 231 227 225 226 229 233 236 235 233 230 227 223 220 219 221 224 227 229 231 235 239 242 244 247 251 256 260 262 263 261 258 256 256 260 271 273 273 278 286 292 299 303 302 267 233 228 233 238 241 239 234 231 231 235 241 248 252 255 257 262 265 266 267 267 268 270 272 273 273 273
237 237 235 232 231 232 234 236 238 242 246 247 246 242 237 231 227 224 224 225 228 231 233 232 230 228 225 222 221 221 224 229 233 237 240 244 248 252 254 256 259 261 263 263 262 260 257 254 254 256 259 267 276 282 287 290 296 302 303 287 229 209 224 231 231 230 229 229 231 237 243 247 250 252 253 257 259 261 263 266 268 271 274 275 276 274
247 245 241 236 234 235 238 240 242 244 246 246 243 238 232 227 223 222 223 225 228 231 234 234 233 232 231 229 227 226 228 233 239 244 248 252 256 259 261 262 263 263 263 261 260 259 257 256 256 259 261 265 272 277 281 284 291 296 295 287 263 238 228 224 222 222 223 229 237 244 250 251 250 248 247 247 249 255 265 273 279 284 287 287 287 286
254 252 247 241 238 238 238 239 241 243 245 244 241 236 231 226 224 224 225 226 228 231 234 236 238 239 240 239 238 237 239 243 247 252 256 259 262 264 265 265 264 263 261 259 257 256 256 256 257 258 260 263 268 274 279 283 287 289 287 281 274 265 246 223 217 219 221 233 245 252 255 254 251 247 243 241 243 253 269 280 287 292 295 296 294 293
256 253 246 240 237 236 236 238 241 244 245 244 242 238 234 230 228 228 229 230 232 234 237 241 246 249 251 252 250 249 249 252 256 260 264 266 266 266 265 264 262 260 258 256 254 253 254 254 254 254 257 260 263 269 275 281 284 284 282 280 278 279 283 228 210 217 229 241 249 254 256 256 254 251 248 246 247 254 265 276 284 291 295 298 298 297
251 246 239 236 235 237 238 241 244 246 247 246 244 240 237 234 233 233 234 235 237 238 240 243 250 254 256 258 259 260 258 259 261 265 267 268 267 264 262 260 258 256 254 253 252 251 251 252 252 253 256 259 261 264 270 276 280 281 280 276 271 268 265 254 241 237 240 244 246 250 255 258 259 258 256 256 256 259 265 271 278 286 291 295 296 296
242 239 238 237 238 240 242 244 246 247 248 247 244 241 239 237 237 238 238 240 241 243 244 246 247 248 250 256 260 263 265 265 265 266 266 265 264 262 260 257 254 252 252 251 251 252 252 253 254 256 260 262 262 263 264 270 275 278 279 276 271 268 266 265 265 264 263 254 247 249 256 262 266 268 267 265 263 264 266 272 279 286 291 293 294 294
239 239 240 240 242 244 246 247 248 249 248 247 244 241 240 239 240 242 243 245 246 246 247 248 248 246 247 251 257 260 264 267 268 267 263 261 261 261 260 257 254 251 250 250 251 252 253 255 257 259 261 262 262 262 262 265 270 274 278 278 276 274 271 269 268 269 270 266 261 258 262 265 270 275 277 275 271 268 269 275 283 290 294 294 293 292
239 240 241 242 244 246 247 248 248 248 248 246 243 241 241 242 243 245 247 249 250 250 251 252 251 251 251 253 254 256 257 260 264 266 263 262 264 264 262 258 254 251 249 248 249 251 253 254 256 258 258 257 256 258 263 267 269 271 276 280 282 280 277 272 267 266 268 268 267 268 270 272 277 282 283 282 279 276 277 281 287 293 296 296 295 292
239 239 240 241 244 247 248 248 249 249 248 246 244 243 242 244 246 248 250 252 254 254 254 253 253 254 256 257 257 258 259 261 263 265 264 264 266 267 263 257 252 248 245 244 245 247 250 253 255 255 255 254 254 256 262 267 269 272 276 281 282 280 277 273 269 266 266 265 266 269 274 280 286 290 290 290 288 287 287 290 293 296 298 299 298 296
240 241 242 243 245 248 250 251 251 252 251 249 245 244 244 246 248 249 251 254 255 255 255 254 254 255 256 257 258 259 260 261 263 264 264 264 266 269 266 256 246 240 239 241 243 246 251 254 255 254 254 253 254 256 260 265 269 272 275 277 276 276 275 275 273 270 268 264 263 266 271 276 281 286 290 293 295 295 295 297 299 301 302 304 303 300
242 243 244 247 249 251 252 253 255 255 255 252 247 243 243 244 246 248 250 253 254 255 255 255 254 254 255 256 257 257 257 257 258 259 259 260 262 266 266 255 240 232 233 238 243 248 255 260 261 260 258 255 254 254 256 260 265 269 270 271 271 273 274 277 278 275 271 268 267 268 271 273 275 280 285 291 294 296 298 299 300 302 304 305 304 299
244 245 246 249 251 253 255 256 256 256 256 253 249 244 241 241 243 246 248 250 251 253 253 253 252 252 253 255 256 256 256 255 255 255 254 253 256 260 261 251 238 229 228 232 239 247 255 264 269 268 265 259 255 253 252 254 257 260 261 266 269 272 274 277 279 279 275 273 273 273 273 273 274 277 283 289 293 295 296 296 297 298 300 300 297 293
Height
817 818 819 821 822 823 823 824 825 826 826 827 827 828 828 828 829 829 829 830 830 831 831 832 833 833 834 835 835 836 836 836 836 836 836 836 836 836 836 836 836 836 835 835 835 835 835 835 834 834 834 834 834 834 834 834 834 835 835 835 836 836 836 837 837 837 838 838 838 838 838 838 838 838 838 839 839 839 839 840 839 839 839 839 839 839
817 818 819 820 821 822 823 823 824 825 826 827 827 827 827 828 828 828 829 829 830 830 831 832 832 833 834 834 835 835 835 836 836 836 836 836 836 836 836 836 835 835 835 835 835 834 834 834 834 834 834 834 834 834 834 834 834 834 834 834 835 835 836 836 836 837 837 837 837 837 837 838 838 838 838 838 839 839 839 839 839 839 839 839 839 839
816 817 818 820 821 821 822 823 824 825 826 826 826 827 827 827 827 828 828 829 830 830 831 831 832 833 833 834 835 835 835 835 836 836 836 836 836 836 836 835 835 835 835 835 834 834 834 834 834 834 833 833 833 833 833 833 833 833 834 834 834 834 835 835 835 836 836 836 837 837 837 837 837 838 838 838 838 839 839 839 839 839 839 839 839 839
815 816 817 818 820 821 821 822 823 824 825 825 826 826 827 827 827 828 828 829 829 830 831 831 832 832 833 833 834 835 835 835 835 835 835 835 835 835 835 835 835 835 835 834 834 834 834 833 833 833 833 833 833 833 833 833 833 833 833 833 833 834 834 834 835 835 835 836 836 836 837 837 837 837 838 838 838 838 838 838 838 838 839 839 839 839
815 816 817 817 819 820 821 822 823 824 824 825 825 825 826 826 827 827 828 829 829 830 830 831 832 832 833 833 834 834 835 835 835 835 835 835 835 835 835 835 835 834 834 834 834 833 833 833 833 833 833 833 833 833 832 832 832 832 832 833 833 833 833 834 834 834 835 835 835 836 836 836 837 837 837 837 837 837 838 838 838 838 838 838 838 838
815 816 817 817 818 819 820 822 822 823 823 824 824 825 826 826 827 827 828 829 829 830 830 831 832 832 832 833 833 834 835 834 834 835 835 835 835 835 835 835 835 834 834 834 834 833 833 833 833 833 833 833 832 832 832 832 832 832 832 832 832 832 833 833 833 834 834 835 835 835 836 836 836 836 837 837 837 837 837 837 837 838 838 838 838 838
815 816 817 817 818 819 820 821 822 822 822 823 824 824 825 826 827 827 828 829 829 830 830 831 832 832 832 833 833 833 834 834 834 834 834 834 834 835 835 834 834 834 834 834 833 833 833 833 833 833 832 832 832 832 832 832 832 832 832 832 832 832 832 833 833 833 834 834 834 835 835 835 836 836 836 836 836 836 837 837 837 837 837 837 837 837
814 815 816 817 817 818 819 820 821 821 822 822 823 824 825 826 827 827 828 829 829 830 830 831 831 832 832 832 833 833 833 833 833 834 834 834 834 834 834 834 834 834 834 833 833 833 833 832 832 832 832 832 832 832 832 832 831 832 832 832 832 832 832 832 832 833 833 833 834 834 834 835 835 835 835 836 836 836 836 836 836 837 837 837 837 837
812 813 815 816 817 817 818 819 820 821 821 822 822 823 824 825 826 827 827 828 829 829 830 830 831 831 832 832 832 833 833 833 833 834 834 834 834 834 834 834 834 833 833 833 833 832 832 832 832 832 832 832 832 831 831 831 831 831 831 831 832 832 832 832 832 832 833 833 833 833 834 834 834 834 835 835 835 835 835 835 836 836 836 836 837 837
811 812 813 815 816 817 817 818 819 820 821 821 822 823 823 824 825 826 827 827 828 829 829 830 830 831 831 832 832 832 833 833 833 833 833 833 833 833 833 833 833 833 833 832 832 832 832 832 832 832 832 832 831 831 831 831 831 831 831 831 831 832 832 832 832 832 832 832 833 833 833 833 834 834 834 834 835 835 835 835 835 835 836 836 836 836
811 811 812 814 815 816 817 817 818 819 820 821 822 823 823 824 825 825 826 827 827 828 829 829 830 831 831 831 832 832 832 832 832 833 833 833 833 833 833 833 832 832 832 832 832 832 831 831 831 831 831 831 831 831 831 831 831 831 831 831 831 831 831 832 832 832 832 832 832 832 833 833 833 833 834 834 834 834 834 835 835 835 835 835 835 836
810 811 812 813 814 815 816 817 817 818 820 821 822 822 823 824 824 825 825 826 827 827 828 829 829 830 831 831 831 832 832 832 832 832 832 832 832 832 832 832 832 832 832 831 831 831 831 831 831 831 831 831 831 830 830 830 830 831 831 831 831 831 831 831 831 832 832 832 832 832 832 833 833 833 833 834 834 834 834 834 834 835 835 835 835 835
809 811 811 812 813 814 815 816 817 818 819 820 820 821 822 823 823 824 825 826 826 827 827 828 829 830 830 830 831 831 831 832 832 832 832 832 832 832 832 832 831 831 831 831 830 830 830 830 830 830 830 830 830 830 830 830 830 830 831 831 831 831 831 831 831 831 831 832 832 832 832 832 833 833 833 833 833 834 834 834 834 834 834 834 835 835
809 810 811 812 813 813 814 815 816 817 818 818 819 820 821 822 822 823 824 825 826 827 827 828 829 829 830 830 830 831 831 831 831 832 832 831 831 831 831 831 831 831 830 830 830 830 830 830 830 830 830 830 830 830 830 830 830 830 831 831 831 831 830 830 831 831 831 831 831 832 832 832 832 833 833 833 833 833 833 834 834 834 834 834 834 834
808 809 810 811 812 812 813 814 814 815 816 817 818 819 820 821 822 823 824 825 826 827 827 828 828 829 829 830 830 830 830 831 831 831 831 831 831 831 831 830 830 830 830 830 829 829 829 829 829 829 829 829 830 830 830 830 830 830 830 830 830 830 830 830 830 830 830 831 831 831 832 832 832 832 833 833 833 833 833 833 833 834 834 834 834 834
807 808 809 810 811 811 812 813 814 815 816 817 818 819 820 821 822 822 823 824 825 826 827 828 828 829 829 829 829 829 830 830 830 830 830 830 830 830 830 830 830 829 829 829 829 829 829 829 829 829 829 829 829 830 830 830 830 830 830 830 830 830 830 830 830 830 830 830 831 831 831 831 832 832 832 833 833 833 833 833 833 833 833 833 833 834
806 807 807 808 809 810 811 812 813 814 815 816 817 818 819 820 821 822 823 824 824 825 826 827 828 828 828 828 828 829 829 829 829 830 830 830 829 829 829 829 829 829 829 829 829 829 829 829 829 829 829 829 829 829 829 830 830 830 830 830 830 829 829 829 829 830 830 830 830 831 831 831 831 832 832 832 832 833 833 833 833 833 833 833 833 833
806 806 807 808 809 810 811 812 813 814 815 816 817 818 819 820 821 822 822 823 824 825 825 826 827 827 827 827 827 828 828 828 829 829 829 829 829 829 829 829 829 829 829 829 829 829 829 829 829 829 829 829 829 829 829 829 829 829 829 829 829 829 829 829 829 829 830 830 830 830 831 831 831 831 831 832 832 832 832 832 832 833 833 833 833 833
806 806 806 807 808 809 810 811 812 813 814 815 816 817 818 819 820 821 822 822 823 824 825 826 826 826 826 827 827 827 827 828 828 828 829 829 828 828 828 828 828 828 828 828 828 828 828 828 828 828 828 828 829 829 829 829 829 829 829 829 829 829 828 828 829 829 829 830 830 830 830 831 831 831 831 831 832 832 832 832 832 832 832 832 833 833
805 806 806 806 807 808 810 810 811 812 813 814 816 817 818 819 820 821 821 822 823 823 824 825 825 826 826 826 826 827 827 827 827 828 828 828 828 828 828 828 828 828 828 828 828 828 828 828 828 828 828 828 828 828 829 829 829 829 828 828 828 828 828 828 828 829 829 830 830 830 830 830 830 830 831 831 831 831 831 832 832 832 832 832 832 832
805 805 806 806 807 808 809 810 811 812 813 814 816 817 817 818 819 820 821 822 822 823 823 824 825 825 825 826 826 826 826 827 827 827 827 827 827 827 828 828 828 828 828 828 828 827 827 827 827 827 828 828 828 828 829 829 828 828 828 828 828 828 828 828 828 829 829 829 829 829 830 830 830 830 830 830 830 831 831 831 832 832 832 832 832 832
805 806 806 807 808 808 809 810 811 812 814 815 815 816 817 818 818 819 820 821 822 822 823 824 824 825 825 825 825 825 826 826 826 827 827 827 827 827 827 827 828 828 828 827 827 827 827 827 827 827 827 828 828 828 828 828 828 828 828 828 828 828 828 828 828 829 829 829 829 829 829 829 829 829 830 830 830 830 830 831 831 831 831 831 831 831
806 806 807 808 808 809 810 811 812 813 814 815 815 816 817 817 818 819 820 821 822 822 823 823 824 824 824 824 825 825 825 825 826 826 826 826 826 827 827 827 827 827 827 827 827 827 827 827 827 827 827 827 828 828 828 828 828 828 828 828 828 828 828 828 828 829 829 829 829 829 829 829 829 829 829 829 829 829 830 830 830 830 831 831 831 831
806 807 807 808 809 810 810 811 812 813 814 815 816 817 817 818 819 819 820 821 821 822 822 822 823 823 824 824 824 824 824 825 825 825 826 826 826 826 826 827 827 827 827 827 826 826 826 826 827 827 827 827 828 828 828 828 828 828 828 828 828 828 828 828 828 828 828 828 828 828 828 828 829 829 829 829 829 829 829 829 829 830 830 830 830 830
806 807 807 808 809 810 810 811 812 813 813 814 815 816 817 818 818 819 820 820 821 821 822 822 822 823 823 823 823 823 824 824 824 825 825 825 825 826 826 826 826 826 826 826 826 826 826 826 826 826 827 827 827 827 827 827 827 827 827 828 828 828 828 828 828 828 828 828 828 828 828 828 828 828 828 828 828 828 828 828 828 829 829 829 829 830
806 807 807 808 809 810 810 811 812 813 814 814 815 816 817 817 818 818 819 820 820 821 821 822 822 822 822 822 822 822 823 823 823 824 824 824 825 825 825 826 826 826 826 826 825 825 825 825 826 826 826 826 826 827 827 827 827 827 827 827 827 827 827 828 828 828 828 828 828 828 828 828 828 828 828 828 828 828 828 828 828 828 828 828 829 829
806 807 808 808 809 810 811 811 812 813 814 814 815 816 816 817 817 818 818 819 819 820 820 821 821 821 821 822 822 822 822 822 823 823 824 824 824 825 825 825 825 825 825 825 825 825 825 825 825 826 826 826 826 826 826 827 827 827 827 827 827 827 827 827 827 827 827 827 827 827 827 827 827 827 827 827 827 827 827 827 827 827 827 828 828 828
807 807 808 809 810 810 811 811 812 813 814 814 815 816 816 817 817 817 818 818 819 819 819 820 820 820 821 821 821 821 822 822 822 823 823 824 824 824 824 824 825 825 825 825 825 825 825 825 825 825 826 826 826 826 826 826 826 826 826 826 827 827 827 827 827 827 827 827 827 827 827 827 827 827 827 827 827 827 827 827 827 827 827 827 827 827
807 808 809 809 810 810 811 811 812 813 814 814 815 815 816 816 817 817 817 817 818 818 819 819 819 820 820 820 821 821 821 822 822 822 822 823 823 823 823 824 824 824 824 824 824 824 824 825 825 825 825 826 826 826 826 826 826 826 826 826 826 826 826 826 826 826 826 826 826 826 826 826 826 826 826 826 826 826 826 826 826 826 826 826 825 825
807 808 809 809 809 810 811 811 812 813 814 814 814 815 815 816 816 817 817 817 817 818 818 818 819 819 820 820 820 821 821 821 821 822 822 822 822 823 823 823 824 824 824 824 824 824 824 824 825 825 825 825 825 825 825 825 825 825 825 825 825 825 825 825 825 825 825 825 825 825 825 825 825 825 825 825 825 825 825 826 825 825 825 825 825 825
807 808 808 809 809 810 811 811 812 813 813 814 814 814 815 815 816 816 816 817 817 817 817 818 818 819 819 820 820 820 820 820 820 821 821 822 822 822 823 823 823 824 824 824 824 824 825 824 824 824 825 825 825 825 825 825 824 824 824 824 824 824 824 824 824 824 824 824 824 824 824 824 824 824 824 824 824 825 825 825 825 825 824 824 824 824
808 808 809 809 810 811 811 812 812 813 813 813 814 814 814 815 815 816 816 816 816 817 817 817 818 818 818 819 819 819 819 819 819 820 821 821 822 822 822 822 823 823 823 824 824 824 824 824 824 824 824 825 825 825 825 824 824 824 823 823 823 823 823 823 823 823 823 823 823 823 823 823 823 823 823 823 824 824 824 824 824 824 824 824 823 823
808 809 809 810 810 811 811 812 812 813 813 813 814 814 814 815 815 815 815 815 816 816 816 817 817 817 818 818 818 818 819 819 819 820 820 821 821 822 822 822 822 823 823 823 823 823 823 824 824 824 824 824 824 824 824 823 823 823 823 823 823 823 823 823 823 823 823 823 823 822 822 822 822 822 822 823 823 823 823 823 823 824 823 823 823 823
808 809 809 810 810 811 811 812 812 813 813 813 813 814 814 814 814 815 815 815 815 815 816 816 816 817 817 817 818 818 818 819 819 819 820 820 821 821 821 822 822 822 823 823 823 823 823 823 823 823 823 823 823 823 823 822 822 822 822 822 822 822 822 822 822 822 822 822 822 822 822 822 822 822 822 822 822 822 822 822 822 823 823 822 822 822
808 808 809 809 810 810 811 811 812 812 813 813 813 813 813 814 814 814 814 814 814 815 815 815 815 816 816 817 817 817 818 818 818 819 819 820 820 820 821 821 822 822 822 822 823 823 823 823 823 823 823 822 822 822 822 822 822 822 822 822 822 821 821 821 821 821 821 821 821 821 821 821 821 821 821 821 821 821 821 821 822 822 822 822 822 822
807 808 808 809 809 810 811 811 811 812 812 812 812 813 813 813 813 813 814 814 814 814 814 814 815 815 815 816 816 817 817 818 818 818 819 819 819 820 820 821 821 822 822 822 822 822 823 823 823 823 823 822 822 822 821 821 821 821 821 821 821 821 821 821 821 821 821 821 821 821 820 820 820 820 820 820 820 820 820 820 820 820 820 821 821 821
807 808 808 809 809 810 810 811 811 811 811 811 812 812 812 812 812 813 813 813 813 814 814 814 814 814 815 815 816 816 817 817 817 817 818 818 819 819 820 820 820 821 821 822 822 822 822 822 822 822 822 822 822 821 821 821 821 821 821 821 820 820 820 820 820 820 820 820 820 820 820 820 820 820 819 819 819 819 819 819 819 819 819 819 819 819
807 807 808 808 809 809 810 810 810 811 811 811 811 811 811 811 812 812 812 813 813 813 813 813 814 814 814 814 815 815 816 816 817 817 817 818 818 819 819 819 820 820 821 821 821 822 822 822 822 822 821 821 821 821 821 820 820 820 820 820 820 820 819 819 819 819 819 820 819 819 819 819 819 819 819 819 818 818 818 818 818 818 818 818 818 818
806 806 807 808 808 808 809 809 810 810 810 810 810 811 811 811 811 811 812 812 812 812 813 813 813 813 814 814 814 815 815 816 816 817 817 817 818 818 818 819 819 819 820 820 820 821 821 821 821 821 821 820 820 820 820 820 819 819 819 819 819 819 819 819 819 819 819 819 819 819 819 818 818 818 818 818 818 818 818 818 818 818 817 817 817 817
806 806 807 807 807 808 808 809 809 809 809 809 810 810 810 810 811 811 811 811 812 812 812 812 813 813 813 814 814 814 815 815 816 816 817 817 817 817 818 818 818 818 819 819 819 819 820 820 820 820 820 820 819 819 819 818 818 819 819 819 819 819 818 818 818 818 818 818 818 818 818 818 818 817 817 817 817 817 817 817 817 817 817 817 817 817
805 806 806 806 807 807 807 808 808 808 808 809 809 809 810 810 810 810 811 811 811 811 811 812 812 812 813 813 813 814 814 815 815 815 816 816 817 817 817 817 817 817 818 818 818 818 818 818 819 819 819 819 819 818 818 817 818 818 818 818 818 817 818 818 817 817 818 818 818 817 817 817 817 817 817 817 817 817 816 816 816 816 816 816 816 816
805 805 806 806 806 806 807 807 807 807 808 808 808 809 809 809 810 810 810 810 811 811 811 811 812 812 812 813 813 813 814 814 815 815 815 815 816 816 816 816 817 817 817 817 817 817 817 817 817 817 818 818 818 817 817 817 817 817 817 817 817 817 817 817 817 817 817 817 817 817 817 817 816 816 816 816 816 816 816 815 815 815 815 815 815 815
804 804 805 805 806 806 806 806 806 807 807 807 808 808 808 809 809 809 809 810 810 810 811 811 811 811 812 812 812 813 813 813 814 814 814 815 815 815 815 815 815 816 816 816 816 816 816 816 817 817 817 817 817 817 816 815 815 816 816 816 816 816 816 816 816 816 816 816 816 816 816 816 815 815 815 815 815 815 815 815 814 814 814 814 814 813
803 804 804 804 805 805 805 806 806 806 806 807 807 807 808 808 808 808 809 809 809 810 810 810 811 811 811 811 811 812 812 813 813 813 813 814 814 814 814 814 814 815 815 815 815 815 815 815 815 815 816 816 816 816 815 815 814 814 815 815 816 815 815 815 815 815 815 815 815 815 815 815 814 814 814 814 814 814 814 814 813 813 813 813 813 812
802 803 803 803 804 804 805 805 805 806 806 806 806 807 807 807 807 808 808 808 808 809 809 810 810 810 810 810 811 811 811 812 812 812 813 813 813 813 813 813 813 814 814 814 814 814 814 814 814 815 815 815 815 815 814 814 813 813 813 814 814 814 814 814 814 814 814 814 814 814 814 814 813 813 813 813 813 813 813 813 812 812 812 812 811 811
802 802 802 803 803 803 804 804 804 805 805 806 806 806 806 806 807 807 807 807 808 808 808 809 809 809 809 809 810 810 811 811 811 811 812 812 812 812 812 813 813 813 813 813 813 813 814 814 814 814 814 814 814 813 813 813 813 812 812 813 813 813 813 813 813 813 813 813 813 813 813 813 812 812 812 812 812 812 812 811 811 811 811 811 811 810
801 802 802 802 802 803 803 803 804 804 804 805 805 805 806 806 806 806 806 806 807 807 807 808 808 808 808 809 809 809 810 810 810 811 811 811 811 812 812 812 812 812 812 812 813 813 813 813 813 814 814 813 813 812 812 812 812 811 811 812 812 812 811 811 811 812 812 812 812 812 812 811 811 811 811 810 810 810 810 810 810 810 810 809 809 809
801 801 801 802 802 802 802 803 803 803 804 804 804 804 805 805 805 805 805 806 806 806 806 806 807 807 807 807 808 808 809 809 809 810 810 811 811 811 811 811 811 811 811 812 812 812 812 812 813 813 813 812 812 811 811 811 811 811 811 811 811 811 810 810 810 811 811 811 811 811 811 811 810 810 810 809 809 808 808 809 809 809 808 808 808 808
801 801 801 801 801 802 802 802 802 803 803 803 803 804 804 804 804 804 804 804 805 805 805 805 806 806 806 806 807 807 808 808 808 809 809 809 810 810 810 810 810 811 811 811 811 811 811 811 811 811 811 811 811 810 810 809 809 810 810 810 810 809 809 809 809 809 810 810 810 810 810 810 809 809 809 808 807 807 806 807 807 807 807 807 807 806
800 800 800 801 801 801 801 802 802 802 802 802 803 803 803 803 803 803 803 803 803 804 804 804 804 804 805 805 805 806 806 806 807 807 808 808 808 809 809 809 809 810 810 810 810 811 811 810 810 809 809 809 809 809 808 808 808 808 808 808 808 808 808 808 808 808 809 809 809 809 809 809 808 808 808 807 807 806 805 805 805 806 806 806 806 805
799 799 800 800 800 800 801 801 801 801 801 802 802 802 802 802 802 802 802 802 802 802 802 803 803 803 803 803 804 804 805 805 806 806 806 807 807 808 808 808 808 809 809 809 810 810 810 809 808 807 806 806 807 807 807 807 807 807 807 807 807 807 807 807 807 807 808 808 808 807 807 807 807 807 807 807 806 805 804 804 804 804 805 805 805 804